Regional Weather Roundup
Issued by NWS

Home | Current Version | Previous Version | Text Only | Print | Product List | Glossary On
Versions: 1 2 3 4 5 6 7 8 9 10 11 12 13 14 15 16 17 18 19 20 21 22 23 24 25 26 27 28 29 30 31 32 33 34 35 36 37 38 39 40 41 42 43 44 45 46 47 48 49 50
094
ASUS45 KBOI 061410
RWRID

IDAHO REGIONAL WEATHER ROUNDUP
NATIONAL WEATHER SERVICE BOISE ID
700 AM MST SAT FEB 06 2016

NOTE: "FAIR" INDICATES FEW OR NO CLOUDS BELOW 12000 FEET
WITH NO SIGNIFICANT WEATHER AND/OR OBSTRUCTIONS TO VISIBILITY

IDZ012-014-061500-
SOUTHWEST IDAHO


CITY           SKY/WX    TMP DP  RH WIND       PRES   REMARKS
BOISE          CLOUDY    33  27  78 S14       30.41S WCI  23
CALDWELL       CLOUDY    32  26  78 E10       30.44R WCI  24
MOUNTAIN HOME  PTCLDY    28  28 100 E15       30.42F WCI  16
$$

IDZ016-017-061500-
SOUTHCENTRAL IDAHO


CITY           SKY/WX    TMP DP  RH WIND       PRES   REMARKS
BURLEY         CLEAR     19  16  88 N7        30.44R WCI  10
JEROME         CLEAR     19  15  84 NE12      30.43F WCI   7
TWIN FALLS     CLEAR     21  17  84 SE7       30.44R WCI  12
$$

IDZ019>023-061500-
SOUTHEAST IDAHO


CITY           SKY/WX    TMP DP  RH WIND       PRES   REMARKS
IDAHO FALLS    CLOUDY    14  11  87 N6        30.47R WCI   5
POCATELLO      CLOUDY    14  12  92 E5        30.46F WCI   6
REXBURG        CLOUDY    20  18  92 NE3       30.46R
$$

IDZ006-010-011-018-031-032-061500-
CENTRAL IDAHO MOUNTAINS


CITY           SKY/WX    TMP DP  RH WIND       PRES   REMARKS
MCCALL         CLOUDY    28  24  85 CALM      30.30S
HAILEY         PTCLDY    18  12  79 NW8       30.42F WCI   7
STANLEY          N/A     22  15  75 CALM      30.32F
SALMON         CLOUDY     9   9 100 NE3       30.28S
CHALLIS        PTCLDY    14  11  87 CALM      30.30F
$$

IDZ002-004-006-007-026-061500-
NORTHERN IDAHO


CITY           SKY/WX    TMP DP  RH WIND       PRES   REMARKS
LEWISTON       PTCLDY    45  29  53 W8        30.30R
LOWELL           N/A     37  35  92 CALM      30.33R
COEUR D`ALENE  CLEAR     37  28  70 W16G23    30.17S WCI  28
MULLAN PASS    FLURRIES  24  21  88 SW12G24   30.09R WCI  13
$$




USA.gov is the U.S. government's official web portal to all federal, state and local government web resources and services.